| time (UTC) | temp F | wind direction | speed MPH | gust MPH | rain 1hr in | rain 24hr in | rain mn in | humidity % | barometer mb |
| 20260503200047 | 73 | 195 | 6.0 | 20.0 | 0.00 | 0.00 | 0.00 | 43 | 1014.1 |
| 20260503195545 | 73 | 219 | 6.0 | 20.0 | 0.00 | 0.00 | 0.00 | 43 | 1014.3 |
| 20260503195045 | 74 | 234 | 8.0 | 20.0 | 0.00 | 0.00 | 0.00 | 45 | 1014.3 |
| 20260503194553 | 73 | 247 | 5.0 | 16.0 | 0.00 | 0.00 | 0.00 | 42 | 1014.3 |
| 20260503194046 | 74 | 216 | 3.0 | 16.0 | 0.00 | 0.00 | 0.00 | 43 | 1014.6 |
| 20260503193543 | 73 | 308 | 4.0 | 12.0 | 0.00 | 0.00 | 0.00 | 45 | 1014.6 |
| 20260503193041 | 74 | 238 | 6.0 | 12.0 | 0.00 | 0.00 | 0.00 | 43 | 1014.8 |
| 20260503192540 | 73 | 192 | 3.0 | 15.0 | 0.00 | 0.00 | 0.00 | 43 | 1014.9 |
| 20260503192040 | 73 | 145 | 8.0 | 16.0 | 0.00 | 0.00 | 0.00 | 41 | 1014.9 |
| 20260503191539 | 73 | 190 | 5.0 | 16.0 | 0.00 | 0.00 | 0.00 | 42 | 1014.9 |
| 20260503191039 | 72 | 190 | 6.0 | 17.0 | 0.00 | 0.00 | 0.00 | 42 | 1015.0 |
| 20260503190641 | 72 | 196 | 4.0 | 22.0 | 0.00 | 0.00 | 0.00 | 41 | 1015.0 |
| 20260503190046 | 72 | 218 | 5.0 | 21.0 | 0.00 | 0.00 | 0.00 | 44 | 1015.0 |
| 20260503185542 | 72 | 219 | 7.0 | 18.0 | 0.00 | 0.00 | 0.00 | 41 | 1015.2 |
| 20260503185042 | 72 | 210 | 3.0 | 18.0 | 0.00 | 0.00 | 0.00 | 46 | 1015.1 |
| 20260503184543 | 71 | 150 | 9.0 | 18.0 | 0.00 | 0.00 | 0.00 | 41 | 1015.3 |
| 20260503184041 | 72 | 227 | 7.0 | 17.0 | 0.00 | 0.00 | 0.00 | 41 | 1015.4 |
| 20260503183539 | 72 | 178 | 8.0 | 16.0 | 0.00 | 0.00 | 0.00 | 42 | 1015.5 |
| 20260503183042 | 72 | 281 | 4.0 | 15.0 | 0.00 | 0.00 | 0.00 | 43 | 1015.7 |
| 20260503182537 | 72 | 265 | 5.0 | 15.0 | 0.00 | 0.00 | 0.00 | 41 | 1015.7 |
| 20260503182036 | 71 | 208 | 5.0 | 13.0 | 0.00 | 0.00 | 0.00 | 42 | 1015.8 |
| 20260503181554 | 72 | 215 | 3.0 | 15.0 | 0.00 | 0.00 | 0.00 | 45 | 1016.1 |
| 20260503181038 | 71 | 135 | 3.0 | 19.0 | 0.00 | 0.00 | 0.00 | 48 | 1016.1 |
| 20260503180505 | 70 | 233 | 6.0 | 19.0 | 0.00 | 0.00 | 0.00 | 44 | 1016.1 |
| 20260503180013 | 70 | 142 | 3.0 | 18.0 | 0.00 | 0.00 | 0.00 | 47 | 1016.2 |
| 20260503175504 | 71 | 172 | 5.0 | 14.0 | 0.00 | 0.00 | 0.00 | 46 | 1016.5 |
| 20260503175002 | 70 | 229 | 1.0 | 14.0 | 0.00 | 0.00 | 0.00 | 51 | 1016.6 |
| 20260503174618 | 70 | 177 | 3.0 | 12.0 | 0.00 | 0.00 | 0.00 | 42 | 1016.8 |
| 20260503174102 | 69 | 171 | 6.0 | 12.0 | 0.00 | 0.00 | 0.00 | 44 | 1017.1 |
| 20260503173558 | 69 | 190 | 5.0 | 19.0 | 0.00 | 0.00 | 0.00 | 46 | 1017.2 |
| 20260503173110 | 69 | 212 | 7.0 | 19.0 | 0.00 | 0.00 | 0.00 | 44 | 1017.4 |
| 20260503172557 | 69 | 329 | 4.0 | 15.0 | 0.00 | 0.00 | 0.00 | 44 | 1017.5 |
| 20260503172054 | 69 | 222 | 5.0 | 15.0 | 0.00 | 0.00 | 0.00 | 46 | 1017.6 |
| 20260503171552 | 69 | 180 | 3.0 | 10.0 | 0.00 | 0.00 | 0.00 | 46 | 1017.9 |
| 20260503171052 | 68 | 177 | 4.0 | 13.0 | 0.00 | 0.00 | 0.00 | 45 | 1017.9 |
| 20260503170502 | 67 | 308 | 4.0 | 19.0 | 0.00 | 0.00 | 0.00 | 46 | 1018.0 |
| 20260503150645 | 60 | 293 | 7.0 | 14.0 | 0.00 | 0.00 | 0.00 | 56 | 1019.7 |
| 20260503131054 | 49 | 139 | 6.0 | 14.0 | 0.00 | 0.00 | 0.00 | 74 | 1020.0 |
| 20260503130531 | 49 | 190 | 3.0 | 9.0 | 0.00 | 0.00 | 0.00 | 76 | 1020.0 |
| 20260503010636 | 49 | 300 | 0.0 | 0.0 | 0.00 | 0.00 | 0.00 | 72 | 1019.7 |
| 20260503010103 | 50 | 300 | 0.0 | 0.0 | 0.00 | 0.00 | 0.00 | 70 | 1019.7 |
| 20260503005600 | 51 | 300 | 0.0 | 0.0 | 0.00 | 0.00 | 0.00 | 66 | 1019.7 |
| 20260503005058 | 52 | 300 | 0.0 | 0.0 | 0.00 | 0.00 | 0.00 | 66 | 1019.7 |
| 20260503004602 | 53 | 300 | 0.0 | 0.0 | 0.00 | 0.00 | 0.00 | 63 | 1019.6 |
| 20260503004057 | 53 | 300 | 0.0 | 2.0 | 0.00 | 0.00 | 0.00 | 61 | 1019.7 |
| 20260503003557 | 55 | 300 | 0.0 | 2.0 | 0.00 | 0.00 | 0.00 | 56 | 1019.7 |
| 20260503003101 | 55 | 300 | 0.0 | 3.0 | 0.00 | 0.00 | 0.00 | 53 | 1019.7 |
| 20260503002553 | 56 | 309 | 1.0 | 3.0 | 0.00 | 0.00 | 0.00 | 52 | 1019.7 |
| 20260503002057 | 56 | 314 | 0.0 | 3.0 | 0.00 | 0.00 | 0.00 | 52 | 1019.6 |
| 20260503001601 | 57 | 5 | 0.0 | 4.0 | 0.00 | 0.00 | 0.00 | 50 | 1019.5 |
| 20260503001053 | 57 | 338 | 1.0 | 5.0 | 0.00 | 0.00 | 0.00 | 49 | 1019.6 |
| 20260503000653 | 57 | 11 | 1.0 | 5.0 | 0.00 | 0.00 | 0.00 | 47 | 1019.5 |
| 20260503000053 | 58 | 355 | 2.0 | 5.0 | 0.00 | 0.00 | 0.00 | 49 | 1019.5 |
| 20260502235553 | 58 | 307 | 1.0 | 8.0 | 0.00 | 0.00 | 0.00 | 49 | 1019.4 |
| 20260502235053 | 58 | 347 | 2.0 | 8.0 | 0.00 | 0.00 | 0.00 | 48 | 1019.5 |
| 20260502234555 | 58 | 298 | 2.0 | 8.0 | 0.00 | 0.00 | 0.00 | 45 | 1019.4 |
| 20260502234053 | 58 | 14 | 2.0 | 9.0 | 0.00 | 0.00 | 0.00 | 47 | 1019.3 |
| 20260502233552 | 58 | 313 | 2.0 | 9.0 | 0.00 | 0.00 | 0.00 | 45 | 1019.4 |
| 20260502233050 | 59 | 321 | 3.0 | 9.0 | 0.00 | 0.00 | 0.00 | 45 | 1019.4 |
| 20260502232548 | 59 | 319 | 2.0 | 9.0 | 0.00 | 0.00 | 0.00 | 46 | 1019.5 |
| 20260502232048 | 59 | 280 | 3.0 | 10.0 | 0.00 | 0.00 | 0.00 | 45 | 1019.5 |
| 20260502231551 | 59 | 291 | 4.0 | 10.0 | 0.00 | 0.00 | 0.00 | 47 | 1019.5 |
| 20260502231052 | 59 | 286 | 4.0 | 12.0 | 0.00 | 0.00 | 0.00 | 45 | 1019.6 |
| 20260502230650 | 59 | 294 | 4.0 | 12.0 | 0.00 | 0.00 | 0.00 | 45 | 1019.5 |
| 20260502230048 | 59 | 323 | 4.0 | 12.0 | 0.00 | 0.00 | 0.00 | 46 | 1019.5 |
| 20260502225547 | 59 | 304 | 3.0 | 11.0 | 0.00 | 0.00 | 0.00 | 47 | 1019.5 |
| 20260502225048 | 59 | 314 | 4.0 | 12.0 | 0.00 | 0.00 | 0.00 | 44 | 1019.5 |
| 20260502224547 | 59 | 355 | 5.0 | 12.0 | 0.00 | 0.00 | 0.00 | 43 | 1019.5 |
| 20260502224047 | 59 | 79 | 5.0 | 12.0 | 0.00 | 0.00 | 0.00 | 43 | 1019.5 |
| 20260502223547 | 59 | 28 | 4.0 | 12.0 | 0.00 | 0.00 | 0.00 | 45 | 1019.5 |
| 20260502223043 | 59 | 271 | 7.0 | 12.0 | 0.00 | 0.00 | 0.00 | 43 | 1019.5 |
| 20260502222543 | 59 | 324 | 3.0 | 8.0 | 0.00 | 0.00 | 0.00 | 44 | 1019.5 |
| 20260502222045 | 60 | 338 | 3.0 | 8.0 | 0.00 | 0.00 | 0.00 | 47 | 1019.5 |
| 20260502221544 | 59 | 281 | 4.0 | 10.0 | 0.00 | 0.00 | 0.00 | 43 | 1019.5 |
| 20260502221043 | 60 | 296 | 5.0 | 12.0 | 0.00 | 0.00 | 0.00 | 48 | 1019.5 |
| 20260502220644 | 60 | 360 | 5.0 | 12.0 | 0.00 | 0.00 | 0.00 | 47 | 1019.5 |
| 20260502220057 | 60 | 296 | 3.0 | 10.0 | 0.00 | 0.00 | 0.00 | 45 | 1019.6 |
| 20260502215541 | 59 | 321 | 4.0 | 8.0 | 0.00 | 0.00 | 0.00 | 45 | 1019.5 |
| 20260502215042 | 59 | 11 | 3.0 | 12.0 | 0.00 | 0.00 | 0.00 | 46 | 1019.5 |
| 20260502214542 | 58 | 306 | 2.0 | 12.0 | 0.00 | 0.00 | 0.00 | 48 | 1019.5 |
| 20260502214041 | 59 | 5 | 3.0 | 12.0 | 0.00 | 0.00 | 0.00 | 45 | 1019.6 |
| 20260502213541 | 60 | 338 | 3.0 | 12.0 | 0.00 | 0.00 | 0.00 | 44 | 1019.5 |
| 20260502213041 | 59 | 292 | 2.0 | 12.0 | 0.00 | 0.00 | 0.00 | 44 | 1019.5 |
| 20260502212538 | 59 | 300 | 4.0 | 12.0 | 0.00 | 0.00 | 0.00 | 46 | 1019.6 |
| 20260502212037 | 59 | 290 | 5.0 | 9.0 | 0.00 | 0.00 | 0.00 | 47 | 1019.5 |
| 20260502211541 | 58 | 315 | 3.0 | 11.0 | 0.00 | 0.00 | 0.00 | 45 | 1019.4 |
| 20260502211040 | 57 | 279 | 2.0 | 11.0 | 0.00 | 0.00 | 0.00 | 50 | 1019.5 |
| 20260502210501 | 58 | 333 | 3.0 | 15.0 | 0.00 | 0.00 | 0.00 | 49 | 1019.5 |
| 20260502210001 | 60 | 288 | 5.0 | 12.0 | 0.00 | 0.00 | 0.00 | 43 | 1019.4 |
| 20260502205501 | 59 | 311 | 3.0 | 13.0 | 0.00 | 0.00 | 0.00 | 46 | 1019.6 |
| 20260502205101 | 59 | 316 | 5.0 | 13.0 | 0.00 | 0.00 | 0.00 | 46 | 1019.5 |
| 20260502204610 | 60 | 327 | 4.0 | 12.0 | 0.00 | 0.00 | 0.00 | 44 | 1019.4 |
| 20260502204101 | 60 | 330 | 5.0 | 12.0 | 0.00 | 0.00 | 0.00 | 42 | 1019.5 |
| 20260502203559 | 60 | 281 | 3.0 | 11.0 | 0.00 | 0.00 | 0.00 | 50 | 1019.5 |
| 20260502203112 | 59 | 281 | 5.0 | 11.0 | 0.00 | 0.00 | 0.00 | 47 | 1019.6 |
| 20260502202557 | 59 | 309 | 4.0 | 10.0 | 0.00 | 0.00 | 0.00 | 45 | 1019.7 |
| 20260502202101 | 59 | 338 | 2.0 | 12.0 | 0.00 | 0.00 | 0.00 | 48 | 1019.8 |
| 20260502201545 | 60 | 310 | 4.0 | 12.0 | 0.00 | 0.00 | 0.00 | 44 | 1020.1 |
| 20260502201042 | 60 | 326 | 3.0 | 9.0 | 0.00 | 0.00 | 0.00 | 51 | 1020.1 |
| 20260502200642 | 58 | 321 | 2.0 | 10.0 | 0.00 | 0.00 | 0.00 | 48 | 1020.2 |